Location: New Plymouth
(39.0670°S, 174.0830°E)
Time: 13:44:11
(UTC+13:00)

Timation 1 Rocket - Pass Details

Date: 24 January 2019
Orbit: 900 x 907 km, 70.0° (Epoch: 19 February)

Event Time Altitude Azimuth Distance (km) Brightness Sun altitude
Rises 23:21:52 0° 208° (SSW) 3,566 8.9 -23.8°
Reaches altitude 10° 23:24:24 10° 210° (SSW) 2,617 7.8 -24.1°
Maximum altitude 23:30:23 66° 290° (WNW) 993 4.5 -24.8°
Enters shadow 23:31:47 51° 346° (NNW) 1,140 4.5 -24.9°
